Regional Weather Roundup
Issued by NWS Columbia, SC

Home | Current Version | Previous Version | Text Only | Print | Product List | Glossary On
Versions: 1 2 3 4 5 6 7 8 9 10 11 12 13 14 15 16 17 18 19 20 21 22 23 24 25 26 27 28 29 30 31 32 33 34 35 36 37 38 39 40 41 42 43 44 45 46 47 48 49 50
000
ASUS42 KCAE 030510
RWRCAE
SOUTH CAROLINA REGIONAL WEATHER ROUNDUP
NATIONAL WEATHER SERVICE COLUMBIA SC
100 AM EDT THU SEP 03 2015

Note: "fair" indicates few or no clouds below 12,000 feet with no
significant weather and/or obstructions to visibility.

SCZ003-006-007-009-010-030600-
UPSTATE

CITY           SKY/WX    TMP DP  RH WIND       PRES   REMARKS
ANDERSON       CLOUDY    74  71  91 CALM      30.02S
CLEMSON        CLOUDY    78  71  79 W7        30.03S
GREENVILLE     CLOUDY    78  68  71 W5        30.03S
GREENWOOD      MOCLDY    73  70  90 CALM      30.03R
GREER          MOCLDY    77  69  76 SW3       30.01S
ROCK HILL      PTCLDY    77  68  73 NE3       30.01R
$$

SCZ027-028-031-032-036-030600-
CENTRAL

CITY           SKY/WX    TMP DP  RH WIND       PRES   REMARKS
COLUMBIA APT   PTCLDY    78  71  79 SW5       29.98F
COLUMBIA OWENS CLEAR     78  72  81 CALM      30.00F
MCENTIRE ANGB  PTCLDY    75  72  90 CALM      29.99F
ORANGEBURG     PTCLDY    75  72  90 CALM      29.99F
SUMTER SHAW    MOCLDY    77  72  84 SW5       29.97F
$$

SCZ034-044-045-048-050-030600-
COAST

CITY           SKY/WX    TMP DP  RH WIND       PRES   REMARKS
CHARLESTON APT MOCLDY    77  74  90 N3        29.98F
BEAUFORT       MOCLDY    76  74  93 CALM      29.98F
$$



USA.gov is the U.S. government's official web portal to all federal, state and local government web resources and services.